Simultaneous Nadir Overpasses (SNOs) Predictions

Prediction of SNOs between LANDSAT-8 and NPP Satellite Orbit:

Table of predicted SNOs for the next 14.0 days since TLE Epoch: 12/16/2017
Index Date (LANDSAT-8) Time (LANDSAT-8) Lat,Lon (LANDSAT-8) SZA (LANDSAT-8 ) Date (NPP) Time (NPP) Lat,Lon (NPP) SZA (NPP ) Distance(km) Time Diff (sec)
1 12/16/2017 06:58:35 70.06, 71.77 93.29 12/16/2017 06:58:08 70.09, 71.82 93.32 3.05 27
2 12/16/2017 07:48:04 -70.01,-120.68 86.77 12/16/2017 07:48:50 -69.99,-120.72 86.78 2.27 46
3 12/18/2017 22:25:35 -70.32, 20.37 86.37 12/18/2017 22:24:22 -70.40, 19.79 86.27 23.30 73
4 12/18/2017 23:15:04 70.06,-172.37 93.38 12/18/2017 23:15:00 70.03,-172.33 93.36 2.84 4
5 12/19/2017 00:04:34 -69.95, -4.89 86.74 12/19/2017 00:05:42 -69.93, -4.86 86.75 1.61 68
6 12/21/2017 14:42:07 -70.15, 136.00 86.50 12/21/2017 14:41:10 -70.14, 135.98 86.51 1.56 57
7 12/21/2017 15:31:34 70.04, -56.51 93.40 12/21/2017 15:31:54 70.04, -56.56 93.39 2.04 20
8 12/21/2017 16:21:16 -69.28, 110.08 87.36 12/21/2017 16:22:24 -69.30, 111.84 87.37 69.37 68
9 12/24/2017 06:58:38 -70.08,-108.23 86.59 12/24/2017 06:58:03 -70.08,-108.17 86.58 2.27 35
10 12/24/2017 07:48:05 69.97, 59.26 93.30 12/24/2017 07:48:47 69.99, 59.29 93.32 2.02 42
11 12/26/2017 22:25:32 70.49,-159.39 93.74 12/26/2017 22:24:21 70.51,-160.38 93.79 36.89 71
12 12/26/2017 23:15:08 -70.06, 7.62 86.69 12/26/2017 23:14:57 -70.09, 7.60 86.66 3.22 11
13 12/27/2017 00:04:35 69.95, 175.11 93.21 12/27/2017 00:05:40 69.94, 175.14 93.19 1.54 65
14 12/29/2017 14:42:08 70.14, -44.03 93.26 12/29/2017 14:41:08 70.15, -44.04 93.28 1.55 60
15 12/29/2017 15:31:37 -70.03, 123.46 86.84 12/29/2017 15:31:49 -70.04, 123.45 86.84 0.82 12
16 12/29/2017 16:21:14 69.37, -69.81 92.51 12/29/2017 16:22:22 69.36, -68.25 92.46 61.20 68




NCC Satellite Simultaneous Nadir Overpasses (SNOs) Prediction Service
